Location: Unspecified
(35.6961°N, 0.0000°E)
Time: 13:20:24
(UTC+00:00)

Altair - Pass Details

Date: 24 May 2019
Orbit: 1501 x 1683 km, 47.2° (Epoch: 19 June)

Event Time Altitude Azimuth Distance (km) Brightness Sun altitude
Rises 04:53:18 0° 260° (W) 4,908 9.5 -0.1°
Reaches altitude 10° 04:56:35 10° 265° (W) 3,933 9.1 0.5°
Maximum altitude 05:06:27 53° 341° (NNW) 1,998 8.3 2.3°
Drops below altitude 10° 05:16:17 10° 57° (ENE) 3,919 11.8 4.2°
Sets 05:19:34 0° 62° (ENE) 4,890 12.8 4.8°
